"Period start","avg(HW err(1)/warn(2) (#))","avg(Visibility (m))","avg(Weather code (#))","avg(Precip intensity (mm/h))","min(HW err(1)/warn(2) (#))","max(HW err(1)/warn(2) (#))","std(HW err(1)/warn(2) (#))","med(HW err(1)/warn(2) (#))","min(Visibility (m))","max(Visibility (m))","std(Visibility (m))","med(Visibility (m))","min(Weather code (#))","max(Weather code (#))","std(Weather code (#))","med(Weather code (#))","min(Precip intensity (mm/h))","max(Precip intensity (mm/h))","std(Precip intensity (mm/h))","med(Precip intensity (mm/h))"
2016-04-16 00:00:00,2,25201,0,0.00,2,2,0,2,18745,29969,3336,25098,0,0,0,0,0.00,0.00,0.00,0.00
2016-04-16 00:10:00,2,28564,0,0.00,2,2,0,2,18655,43591,8429,26600,0,0,0,0,0.00,0.00,0.00,0.00
2016-04-16 00:20:00,2,29371,0,0.00,2,2,0,2,20437,42815,7107,28830,0,0,0,0,0.00,0.00,0.00,0.00
2016-04-16 00:30:00,2,32552,0,0.00,2,2,0,2,20874,44520,7910,30685,0,0,0,0,0.00,0.00,0.00,0.00
2016-04-16 00:40:00,2,25955,0,0.00,2,2,0,2,16523,35313,6120,25401,0,0,0,0,0.00,0.00,0.00,0.00
2016-04-16 00:50:00,2,28276,0,0.00,2,2,0,2,15152,44112,9572,27926,0,0,0,0,0.00,0.00,0.00,0.00
2016-04-16 01:00:00,2,29779,0,0.00,2,2,0,2,15053,45554,8192,30390,0,0,0,0,0.00,0.00,0.00,0.00
2016-04-16 01:10:00,2,30401,0,0.00,2,2,0,2,22908,38396,4252,29806,0,0,0,0,0.00,0.00,0.00,0.00
2016-04-16 01:20:00,2,30360,0,0.00,2,2,0,2,20519,50000,8804,26840,0,0,0,0,0.00,0.00,0.00,0.00
2016-04-16 01:30:00,2,36964,0,0.00,2,2,0,2,23346,50000,10080,35462,0,0,0,0,0.00,0.00,0.00,0.00
2016-04-16 01:40:00,2,35214,0,0.00,2,2,0,2,20980,50000,8553,36560,0,0,0,0,0.00,0.00,0.00,0.00
2016-04-16 01:50:00,2,34089,0,0.00,2,2,0,2,14863,50000,12240,38616,0,0,0,0,0.00,0.00,0.00,0.00
2016-04-16 02:00:00,2,26810,0,0.00,2,2,0,2,16214,36239,6501,26642,0,0,0,0,0.00,0.00,0.00,0.00
2016-04-16 02:10:00,2,39552,0,0.00,2,2,0,2,27487,50000,7339,37608,0,0,0,0,0.00,0.00,0.00,0.00
2016-04-16 02:20:00,2,44018,0,0.00,2,2,0,2,30548,50000,6829,46770,0,0,0,0,0.00,0.00,0.00,0.00
2016-04-16 02:30:00,2,35032,0,0.00,2,2,0,2,21261,44339,7409,38212,0,0,0,0,0.00,0.00,0.00,0.00
2016-04-16 02:40:00,2,36764,0,0.00,2,2,0,2,23344,50000,9493,34698,0,0,0,0,0.00,0.00,0.00,0.00
2016-04-16 02:50:00,2,38086,0,0.00,2,2,0,2,28415,50000,6742,37528,0,0,0,0,0.00,0.00,0.00,0.00
2016-04-16 03:00:00,2,38625,0,0.00,2,2,0,2,25638,50000,8760,36994,0,0,0,0,0.00,0.00,0.00,0.00
2016-04-16 03:10:00,2,42504,0,0.00,2,2,0,2,27220,50000,6716,44684,0,0,0,0,0.00,0.00,0.00,0.00
2016-04-16 03:20:00,2,37324,0,0.00,2,2,0,2,23268,50000,8135,35526,0,0,0,0,0.00,0.00,0.00,0.00
2016-04-16 03:30:00,2,38055,0,0.00,2,2,0,2,19897,50000,10742,40862,0,0,0,0,0.00,0.00,0.00,0.00
2016-04-16 03:40:00,2,38693,0,0.00,2,2,0,2,23496,50000,8646,41971,0,0,0,0,0.00,0.00,0.00,0.00
2016-04-16 03:50:00,2,37801,0,0.00,2,2,0,2,23701,50000,7745,36947,0,0,0,0,0.00,0.00,0.00,0.00
2016-04-16 04:00:00,2,36150,0,0.00,2,2,0,2,19699,47379,7818,34284,0,0,0,0,0.00,0.00,0.00,0.00
2016-04-16 04:10:00,2,45402,0,0.00,2,2,0,2,35212,50000,5394,48823,0,0,0,0,0.00,0.00,0.00,0.00
2016-04-16 04:20:00,2,36790,0,0.00,2,2,0,2,27447,47481,6301,35489,0,0,0,0,0.00,0.00,0.00,0.00
2016-04-16 04:30:00,2,41680,0,0.00,2,2,0,2,34132,50000,5530,40036,0,0,0,0,0.00,0.00,0.00,0.00
2016-04-16 04:40:00,2,45579,0,0.00,2,2,0,2,31690,50000,5837,48500,0,0,0,0,0.00,0.00,0.00,0.00
2016-04-16 04:50:00,2,44835,0,0.00,2,2,0,2,31557,50000,7217,49362,0,0,0,0,0.00,0.00,0.00,0.00
2016-04-16 05:00:00,2,40935,0,0.00,2,2,0,2,22022,50000,10502,46054,0,0,0,0,0.00,0.00,0.00,0.00
2016-04-16 05:10:00,2,43124,0,0.00,2,2,0,2,35002,50000,4472,42090,0,0,0,0,0.00,0.00,0.00,0.00
2016-04-16 05:20:00,2,46364,0,0.00,2,2,0,2,41354,50000,3041,46044,0,0,0,0,0.00,0.00,0.00,0.00
2016-04-16 05:30:00,2,39232,0,0.00,2,2,0,2,31144,50000,5617,40270,0,0,0,0,0.00,0.00,0.00,0.00
2016-04-16 05:40:00,2,46888,0,0.00,2,2,0,2,33718,50000,5570,49897,0,0,0,0,0.00,0.00,0.00,0.00
2016-04-16 05:50:00,2,46703,0,0.00,2,2,0,2,37497,50000,3810,47464,0,0,0,0,0.00,0.00,0.00,0.00
2016-04-16 06:00:00,2,40922,0,0.00,2,2,0,2,31050,48774,6163,40308,0,0,0,0,0.00,0.00,0.00,0.00
2016-04-16 06:10:00,2,45658,0,0.00,2,2,0,2,35534,50000,4280,45838,0,0,0,0,0.00,0.00,0.00,0.00
2016-04-16 06:20:00,2,47852,0,0.00,2,2,0,2,39460,50000,3621,49980,0,0,0,0,0.00,0.00,0.00,0.00
2016-04-16 06:30:00,2,44769,0,0.00,2,2,0,2,27265,50000,6892,47492,0,0,0,0,0.00,0.00,0.00,0.00
2016-04-16 06:40:00,2,46043,0,0.00,2,2,0,2,36139,50000,4755,48785,0,0,0,0,0.00,0.00,0.00,0.00
2016-04-16 06:50:00,2,45234,0,0.00,2,2,0,2,35110,50000,5301,47111,0,0,0,0,0.00,0.00,0.00,0.00
2016-04-16 07:00:00,2,44398,0,0.00,2,2,0,2,30494,50000,6570,46748,0,0,0,0,0.00,0.00,0.00,0.00
2016-04-16 07:10:00,2,42960,0,0.00,2,2,0,2,34939,50000,4889,42220,0,0,0,0,0.00,0.00,0.00,0.00
2016-04-16 07:20:00,2,47250,0,0.00,2,2,0,2,39351,50000,3978,50000,0,0,0,0,0.00,0.00,0.00,0.00
2016-04-16 07:30:00,2,39049,0,0.00,2,2,0,2,30528,50000,6194,39278,0,0,0,0,0.00,0.00,0.00,0.00
2016-04-16 07:40:00,2,41690,0,0.00,2,2,0,2,31661,50000,5463,43248,0,0,0,0,0.00,0.00,0.00,0.00
2016-04-16 07:50:00,2,46581,0,0.00,2,2,0,2,39289,50000,3996,48284,0,0,0,0,0.00,0.00,0.00,0.00
2016-04-16 08:00:00,2,47395,0,0.00,2,2,0,2,34096,50000,4833,50000,0,0,0,0,0.00,0.00,0.00,0.00
2016-04-16 08:10:00,2,45655,0,0.00,2,2,0,2,36539,50000,4846,47254,0,0,0,0,0.00,0.00,0.00,0.00
2016-04-16 08:20:00,2,44821,0,0.00,2,2,0,2,34245,50000,5426,46400,0,0,0,0,0.00,0.00,0.00,0.00
2016-04-16 08:30:00,2,48140,0,0.00,2,2,0,2,39242,50000,3313,50000,0,0,0,0,0.00,0.00,0.00,0.00
2016-04-16 08:40:00,2,49224,0,0.00,2,2,0,2,47299,50000,1184,50000,0,0,0,0,0.00,0.00,0.00,0.00
2016-04-16 08:50:00,2,47373,0,0.00,2,2,0,2,39769,50000,3522,49862,0,0,0,0,0.00,0.00,0.00,0.00
2016-04-16 09:00:00,2,49929,0,0.00,2,2,0,2,49286,50000,214,50000,0,0,0,0,0.00,0.00,0.00,0.00
2016-04-16 09:10:00,2,47164,0,0.00,2,2,0,2,39953,50000,3474,48682,0,0,0,0,0.00,0.00,0.00,0.00
2016-04-16 09:20:00,2,48122,0,0.00,2,2,0,2,42297,50000,2940,50000,0,0,0,0,0.00,0.00,0.00,0.00
2016-04-16 09:30:00,2,49168,0,0.00,2,2,0,2,43996,50000,1795,50000,0,0,0,0,0.00,0.00,0.00,0.00
2016-04-16 09:40:00,2,49817,0,0.00,2,2,0,2,48174,50000,548,50000,0,0,0,0,0.00,0.00,0.00,0.00
2016-04-16 09:50:00,2,47274,0,0.00,2,2,0,2,41229,50000,3207,48712,0,0,0,0,0.00,0.00,0.00,0.00
2016-04-16 10:00:00,2,47483,0,0.00,2,2,0,2,38728,50000,3486,48802,0,0,0,0,0.00,0.00,0.00,0.00
2016-04-16 10:10:00,2,44903,0,0.00,2,2,0,2,38070,50000,4166,45928,0,0,0,0,0.00,0.00,0.00,0.00
2016-04-16 10:20:00,2,49563,0,0.00,2,2,0,2,46879,50000,969,50000,0,0,0,0,0.00,0.00,0.00,0.00
2016-04-16 10:30:00,2,50000,0,0.00,2,2,0,2,50000,50000,0,50000,0,0,0,0,0.00,0.00,0.00,0.00
2016-04-16 10:40:00,2,49642,0,0.00,2,2,0,2,47949,50000,726,50000,0,0,0,0,0.00,0.00,0.00,0.00
2016-04-16 10:50:00,2,49679,0,0.00,2,2,0,2,48360,50000,641,50000,0,0,0,0,0.00,0.00,0.00,0.00
2016-04-16 11:00:00,2,50000,0,0.00,2,2,0,2,50000,50000,0,50000,0,0,0,0,0.00,0.00,0.00,0.00
2016-04-16 11:10:00,2,50000,0,0.00,2,2,0,2,50000,50000,0,50000,0,0,0,0,0.00,0.00,0.00,0.00
2016-04-16 11:20:00,2,50000,0,0.00,2,2,0,2,50000,50000,0,50000,0,0,0,0,0.00,0.00,0.00,0.00
2016-04-16 11:30:00,2,50000,0,0.00,2,2,0,2,50000,50000,0,50000,0,0,0,0,0.00,0.00,0.00,0.00
2016-04-16 11:40:00,2,50000,0,0.00,2,2,0,2,50000,50000,0,50000,0,0,0,0,0.00,0.00,0.00,0.00
2016-04-16 11:50:00,2,50000,0,0.00,2,2,0,2,50000,50000,0,50000,0,0,0,0,0.00,0.00,0.00,0.00
2016-04-16 12:00:00,2,50000,0,0.00,2,2,0,2,50000,50000,0,50000,0,0,0,0,0.00,0.00,0.00,0.00
2016-04-16 12:10:00,2,50000,0,0.00,2,2,0,2,50000,50000,0,50000,0,0,0,0,0.00,0.00,0.00,0.00
2016-04-16 12:20:00,2,50000,0,0.00,2,2,0,2,50000,50000,0,50000,0,0,0,0,0.00,0.00,0.00,0.00
2016-04-16 12:30:00,2,50000,0,0.00,2,2,0,2,50000,50000,0,50000,0,0,0,0,0.00,0.00,0.00,0.00
2016-04-16 12:40:00,2,50000,0,0.00,2,2,0,2,50000,50000,0,50000,0,0,0,0,0.00,0.00,0.00,0.00
2016-04-16 12:50:00,2,50000,0,0.00,2,2,0,2,50000,50000,0,50000,0,0,0,0,0.00,0.00,0.00,0.00
2016-04-16 13:00:00,2,50000,0,0.00,2,2,0,2,50000,50000,0,50000,0,0,0,0,0.00,0.00,0.00,0.00
2016-04-16 13:10:00,2,50000,0,0.00,2,2,0,2,50000,50000,0,50000,0,0,0,0,0.00,0.00,0.00,0.00
2016-04-16 13:20:00,2,50000,0,0.00,2,2,0,2,50000,50000,0,50000,0,0,0,0,0.00,0.00,0.00,0.00
2016-04-16 13:30:00,2,50000,0,0.00,2,2,0,2,50000,50000,0,50000,0,0,0,0,0.00,0.00,0.00,0.00
2016-04-16 13:40:00,2,50000,0,0.00,2,2,0,2,50000,50000,0,50000,0,0,0,0,0.00,0.00,0.00,0.00
2016-04-16 13:50:00,2,50000,0,0.00,2,2,0,2,50000,50000,0,50000,0,0,0,0,0.00,0.00,0.00,0.00
2016-04-16 14:00:00,2,50000,0,0.00,2,2,0,2,50000,50000,0,50000,0,0,0,0,0.00,0.00,0.00,0.00
2016-04-16 14:10:00,2,50000,0,0.00,2,2,0,2,50000,50000,0,50000,0,0,0,0,0.00,0.00,0.00,0.00
2016-04-16 14:20:00,2,50000,0,0.00,2,2,0,2,50000,50000,0,50000,0,0,0,0,0.00,0.00,0.00,0.00
2016-04-16 14:30:00,2,50000,0,0.00,2,2,0,2,50000,50000,0,50000,0,0,0,0,0.00,0.00,0.00,0.00
2016-04-16 14:40:00,2,50000,0,0.00,2,2,0,2,50000,50000,0,50000,0,0,0,0,0.00,0.00,0.00,0.00
2016-04-16 14:50:00,2,50000,0,0.00,2,2,0,2,50000,50000,0,50000,0,0,0,0,0.00,0.00,0.00,0.00
2016-04-16 15:00:00,2,50000,0,0.00,2,2,0,2,50000,50000,0,50000,0,0,0,0,0.00,0.00,0.00,0.00
2016-04-16 15:10:00,2,50000,0,0.00,2,2,0,2,50000,50000,0,50000,0,0,0,0,0.00,0.00,0.00,0.00
2016-04-16 15:20:00,2,50000,0,0.00,2,2,0,2,50000,50000,0,50000,0,0,0,0,0.00,0.00,0.00,0.00
2016-04-16 15:30:00,2,50000,0,0.00,2,2,0,2,50000,50000,0,50000,0,0,0,0,0.00,0.00,0.00,0.00
2016-04-16 15:40:00,2,50000,0,0.00,2,2,0,2,50000,50000,0,50000,0,0,0,0,0.00,0.00,0.00,0.00
2016-04-16 15:50:00,2,50000,0,0.00,2,2,0,2,50000,50000,0,50000,0,0,0,0,0.00,0.00,0.00,0.00
2016-04-16 16:00:00,2,50000,0,0.00,2,2,0,2,50000,50000,0,50000,0,0,0,0,0.00,0.00,0.00,0.00
2016-04-16 16:10:00,2,49999,0,0.00,2,2,0,2,49988,50000,4,50000,0,0,0,0,0.00,0.00,0.00,0.00
2016-04-16 16:20:00,2,50000,0,0.00,2,2,0,2,50000,50000,0,50000,0,0,0,0,0.00,0.00,0.00,0.00
2016-04-16 16:30:00,2,50000,0,0.00,2,2,0,2,50000,50000,0,50000,0,0,0,0,0.00,0.00,0.00,0.00
2016-04-16 16:40:00,2,50000,0,0.00,2,2,0,2,50000,50000,0,50000,0,0,0,0,0.00,0.00,0.00,0.00
2016-04-16 16:50:00,2,50000,0,0.00,2,2,0,2,50000,50000,0,50000,0,0,0,0,0.00,0.00,0.00,0.00
2016-04-16 17:00:00,2,49922,0,0.00,2,2,0,2,49518,50000,162,50000,0,0,0,0,0.00,0.00,0.00,0.00
2016-04-16 17:10:00,2,50000,0,0.00,2,2,0,2,50000,50000,0,50000,0,0,0,0,0.00,0.00,0.00,0.00
2016-04-16 17:20:00,2,50000,0,0.00,2,2,0,2,50000,50000,0,50000,0,0,0,0,0.00,0.00,0.00,0.00
2016-04-16 17:30:00,2,50000,0,0.00,2,2,0,2,50000,50000,0,50000,0,0,0,0,0.00,0.00,0.00,0.00
2016-04-16 17:40:00,2,50000,0,0.00,2,2,0,2,50000,50000,0,50000,0,0,0,0,0.00,0.00,0.00,0.00
2016-04-16 17:50:00,2,50000,0,0.00,2,2,0,2,50000,50000,0,50000,0,0,0,0,0.00,0.00,0.00,0.00
2016-04-16 18:00:00,2,50000,0,0.00,2,2,0,2,50000,50000,0,50000,0,0,0,0,0.00,0.00,0.00,0.00
2016-04-16 18:10:00,2,50000,0,0.00,2,2,0,2,50000,50000,0,50000,0,0,0,0,0.00,0.00,0.00,0.00
2016-04-16 18:20:00,2,50000,0,0.00,2,2,0,2,50000,50000,0,50000,0,0,0,0,0.00,0.00,0.00,0.00
2016-04-16 18:30:00,2,50000,0,0.00,2,2,0,2,50000,50000,0,50000,0,0,0,0,0.00,0.00,0.00,0.00
2016-04-16 18:40:00,2,50000,0,0.00,2,2,0,2,50000,50000,0,50000,0,0,0,0,0.00,0.00,0.00,0.00
2016-04-16 18:50:00,2,50000,0,0.00,2,2,0,2,50000,50000,0,50000,0,0,0,0,0.00,0.00,0.00,0.00
2016-04-16 19:00:00,2,50000,0,0.00,2,2,0,2,50000,50000,0,50000,0,0,0,0,0.00,0.00,0.00,0.00
2016-04-16 19:10:00,2,41667,0,0.00,1,2,0,2,0,50000,18634,50000,0,0,0,0,0.00,0.00,0.00,0.00
2016-04-16 19:20:00,1,0,,0.00,1,2,0,1,0,0,0,0,,,,,0.00,0.00,0.00,0.00
2016-04-16 19:30:00,1,,,,1,1,0,1,,,,,,,,,,,,
2016-04-16 19:40:00,1,50000,,0.00,1,2,0,1,50000,50000,0,50000,,,,,0.00,0.00,0.00,0.00
2016-04-16 19:50:00,2,50000,0,0.00,2,2,0,2,50000,50000,0,50000,0,0,0,0,0.00,0.00,0.00,0.00
2016-04-16 20:00:00,2,49815,0,0.00,2,2,0,2,48146,50000,556,50000,0,0,0,0,0.00,0.00,0.00,0.00
2016-04-16 20:10:00,2,50000,0,0.00,2,2,0,2,50000,50000,0,50000,0,0,0,0,0.00,0.00,0.00,0.00
2016-04-16 20:20:00,2,50000,0,0.00,2,2,0,2,50000,50000,0,50000,0,0,0,0,0.00,0.00,0.00,0.00
2016-04-16 20:30:00,2,49720,0,0.00,2,2,0,2,48256,50000,565,50000,0,0,0,0,0.00,0.00,0.00,0.00
2016-04-16 20:40:00,2,49424,0,0.00,2,2,0,2,47318,50000,984,50000,0,0,0,0,0.00,0.00,0.00,0.00
2016-04-16 20:50:00,2,50000,0,0.00,2,2,0,2,50000,50000,0,50000,0,0,0,0,0.00,0.00,0.00,0.00
2016-04-16 21:00:00,2,49519,0,0.00,2,2,0,2,47216,50000,976,50000,0,0,0,0,0.00,0.00,0.00,0.00
2016-04-16 21:10:00,2,46910,0,0.00,2,2,0,2,40543,50000,3424,48009,0,0,0,0,0.00,0.00,0.00,0.00
2016-04-16 21:20:00,2,48813,0,0.00,2,2,0,2,42985,50000,2271,50000,0,0,0,0,0.00,0.00,0.00,0.00
2016-04-16 21:30:00,2,48870,0,0.00,2,2,0,2,40169,50000,2927,50000,0,0,0,0,0.00,0.00,0.00,0.00
2016-04-16 21:40:00,2,46977,0,0.00,2,2,0,2,38017,50000,3854,48971,0,0,0,0,0.00,0.00,0.00,0.00
2016-04-16 21:50:00,2,45661,0,0.00,2,2,0,2,35602,50000,4960,47932,0,0,0,0,0.00,0.00,0.00,0.00
2016-04-16 22:00:00,2,45750,0,0.00,2,2,0,2,37505,50000,4804,48321,0,0,0,0,0.00,0.00,0.00,0.00
2016-04-16 22:10:00,2,46160,0,0.00,2,2,0,2,39632,50000,3280,46444,0,0,0,0,0.00,0.00,0.00,0.00
2016-04-16 22:20:00,2,44551,0,0.00,2,2,0,2,29703,50000,6660,47627,0,0,0,0,0.00,0.00,0.00,0.00
2016-04-16 22:30:00,2,38190,0,0.00,2,2,0,2,24485,50000,6094,39554,0,0,0,0,0.00,0.00,0.00,0.00
2016-04-16 22:40:00,2,42420,0,0.00,2,2,0,2,32202,50000,6090,42388,0,0,0,0,0.00,0.00,0.00,0.00
2016-04-16 22:50:00,2,33078,0,0.00,2,2,0,2,22183,50000,7255,31955,0,0,0,0,0.00,0.00,0.00,0.00
2016-04-16 23:00:00,2,15310,60,0.07,2,2,0,2,1545,38402,14685,8659,0,77,30,77,0.00,0.20,0.08,0.03
2016-04-16 23:10:00,2,40052,8,0.00,2,2,0,2,22595,50000,8176,42730,0,77,23,0,0.00,0.00,0.00,0.00
2016-04-16 23:20:00,2,40444,0,0.00,2,2,0,2,28137,49253,6471,41699,0,0,0,0,0.00,0.00,0.00,0.00
2016-04-16 23:30:00,2,38814,0,0.00,2,2,0,2,24626,49844,6680,38869,0,0,0,0,0.00,0.00,0.00,0.00
2016-04-16 23:40:00,2,37953,0,0.00,2,2,0,2,21955,46974,6876,39546,0,0,0,0,0.00,0.00,0.00,0.00
2016-04-16 23:50:00,2,35178,0,0.00,2,2,0,2,23840,50000,6957,36254,0,0,0,0,0.00,0.00,0.00,0.00
